#timestamp,LO_Frequency,Hit,StdDev 
1457337615.7,286046999.9,N
1457337635.5,286047003.5,N
1457337655.3,286047002.9,N
1457337675.2,286047005.5,Y
1457337695.0,286047001.7,P
1457337695.9,286047001.7,P
1457337715.7,286047003.7,P
1457337735.6,286047003.4,Y
1457337755.4,286047002.6,P
1457337775.2,286046998.2,P
1457337795.1,286047004.4,N
1457337796.0,286047004.4,N
1457337815.8,286047002.5,N
1457337835.6,286047003.2,N
1457337855.5,286047005.1,N
1457337875.3,286047004.8,N
1457337895.1,286047007.0,Y
1457337915.9,286047004.2,P
1457337935.7,286047002.7,P
1457337955.5,286047002.2,P
1457337975.4,286047002.2,N
1457337995.2,286047003.6,Y
1457338015.0,286046998.5,P
1457338015.9,286046998.5,N
1457338035.8,286047002.2,N
1457338055.6,286046998.6,N
1457338075.4,286046998.5,N
1457338095.3,286046998.3,N
1457338115.1,286047001.0,N
1457338116.0,286047001.0,N
1457338135.8,286047003.7,N
1457338155.7,286047004.3,N
1457338175.5,286047005.4,N
1457338195.3,286047005.2,N
1457338215.1,286047007.2,N
1457338235.9,286047004.8,N
1457338255.7,286047002.5,N
1457338275.5,286046998.4,N
1457338295.4,286047000.5,N
1457338315.2,286047000.5,N
1457338335.0,286047001.6,N
1457338335.9,286047001.6,N
1457338355.8,286047004.3,N
1457338375.6,286047001.8,N
1457338395.4,286047004.0,N
1457338415.3,286046998.2,N
1457338435.1,286046999.3,N
1457338436.0,286046999.3,N
1457338455.8,286046998.7,N
1457338475.7,286046996.8,N
1457338495.5,286046997.8,N
1457338515.3,286046997.6,N
1457338535.1,286046999.5,N
1457338555.9,286046998.9,N
1457338575.7,286046997.3,N
1457338595.5,286046995.5,N
1457338615.4,286046997.6,N
1457338635.2,286046995.1,N
1457338655.0,286046993.9,N
1457338655.9,286046993.9,N
1457338675.8,286046993.1,N
1457338695.6,286046990.9,N
1457338715.4,286046990.8,N
1457338735.3,286046989.5,N
1457338755.1,286046985.4,Y
1457338775.8,286046989.6,P
1457338795.7,286046989.9,N
1457338815.5,286046984.2,P
1457338835.3,286046983.0,Y
1457338855.2,286046988.9,P
1457338875.9,286046991.2,P
1457338895.7,286046991.1,P
1457338915.6,286046988.2,Y
1457338935.4,286046993.8,P
1457338955.2,286046997.3,N
1457338975.1,286046996.8,N
1457338976.0,286046996.8,N
1457338995.8,286046999.5,N
1457339015.6,286046999.2,N
1457339035.5,286046999.7,N
1457339055.3,286046998.3,N
1457339075.1,286046997.3,N
1457339095.9,286046994.7,N
1457339115.7,286046992.3,N
1457339135.5,286046990.4,Y
1457339155.4,286046993.9,P
1457339175.2,286046996.4,N
1457339195.0,286046996.6,N
1457339195.9,286046996.6,Y
1457339215.8,286047003.2,P
1457339235.6,286047000.9,N
1457339255.4,286046999.8,N
1457339275.3,286047001.7,N
1457339295.1,286047002.4,N
1457339296.0,286047002.4,N
1457339315.8,286047004.0,N
1457339335.7,286047004.3,N
1457339355.5,286047000.3,N
1457339375.3,286046997.1,N
1457339395.1,286046995.7,N
1457339415.9,286046995.8,N
1457339435.7,286046997.2,N
1457339455.5,286046996.7,N
1457339475.4,286047000.6,N
1457339495.2,286046996.5,N
1457339515.0,286047000.9,N
1457339515.9,286047000.9,N
1457339535.8,286046998.5,N
1457339555.6,286046997.3,N
1457339575.4,286046998.1,N
1457339595.3,286046998.2,N
1457339615.1,286046995.8,N
1457339616.0,286046995.8,N
1457339635.8,286046995.3,N
1457339655.6,286046998.4,N
1457339675.5,286046998.0,N
1457339695.3,286046999.0,N
1457339715.1,286046995.0,N
1457339735.9,286046993.9,N
1457339755.7,286046992.1,N
1457339775.5,286046993.7,N
1457339795.4,286046994.2,N
1457339815.2,286046991.7,N
1457339835.0,286046999.5,N
1457339835.9,286046999.5,N
1457339855.8,286046999.8,N
1457339875.6,286047001.9,N
1457339895.4,286047002.6,N
1457339915.3,286047004.2,N
1457339935.1,286047003.9,N
1457339936.0,286047003.9,N
1457339955.8,286047001.9,N
1457339975.7,286047001.9,N
1457339995.5,286047002.4,N
1457340015.3,286047005.7,N
1457340035.1,286047005.8,N
1457340055.9,286047005.6,N
1457340075.7,286047005.6,N
1457340095.5,286047003.6,N
1457340115.4,286047003.8,N
1457340135.2,286047001.8,N
1457340155.0,286047002.0,N
1457340155.9,286047002.0,N
1457340175.8,286047002.2,N
1457340195.6,286047002.6,N
1457340215.4,286047002.0,N
1457340235.3,286047004.3,N
1457340255.1,286047001.4,N
1457340256.0,286047001.4,N
1457340275.8,286047000.6,N
1457340295.7,286046999.2,N
1457340315.5,286046996.9,N
1457340335.3,286046998.4,N
1457340355.2,286046999.6,N
1457340375.9,286046997.1,N
1457340395.7,286046995.4,N
1457340415.5,286046996.7,N
1457340435.4,286046993.7,N
1457340455.2,286046995.8,N
1457340475.0,286046996.4,N
1457340475.9,286046996.4,N
1457340495.8,286046994.3,N
1457340515.6,286046994.5,N
1457340535.4,286046992.0,N
1457340555.3,286046991.0,N
1457340575.1,286046990.6,N
1457340576.0,286046990.6,N
1457340595.8,286046995.8,N
1457340615.7,286046991.7,N
1457340635.5,286046992.3,N
1457340655.3,286046992.0,N
1457340675.2,286046992.2,N
1457340695.9,286046997.6,N
1457340715.7,286046997.9,N
1457340735.6,286047000.5,N
1457340755.4,286047005.1,N
1457340775.2,286047004.9,N
1457340795.0,286047008.3,N
1457340796.0,286047008.3,N
1457340815.8,286047010.9,N
1457340835.6,286047014.4,N
1457340855.5,286047020.1,Y
1457340875.3,286047020.9,P
1457340895.1,286047024.9,N
1457340915.8,286047023.1,N
1457340935.7,286047020.6,N
1457340955.5,286047020.7,N
1457340975.3,286047024.9,N
1457340995.2,286047025.6,N
1457341015.9,286047029.5,Y
1457341035.7,286047011.9,P
1457341055.6,286047008.2,N
1457341075.4,286047009.2,N
1457341095.2,286047009.9,N
1457341115.1,286047007.8,N
1457341116.0,286047007.8,N
1457341135.8,286047007.2,N
1457341155.6,286047006.4,N
1457341175.5,286047012.4,Y
1457341195.3,286046999.0,P
